Tracking 20712 objects as of 27-May-2020
HD Live streaming from Space Station
objects crossing your sky now

MOLNIYA 1-75

Track MOLNIYA 1-75 now!
MOLNIYA 1-75 is classified as:


NORAD ID: 19807
Int'l Code: 1989-014A
Perigee: 1,462.7 km
Apogee: 38,940.7 km
Inclination: 64.3 °
Period: 718.5 minutes
Semi major axis: 26572 km
RCS: 12.6191 m2 (large)
Launch date: February 15, 1989
Source: Commonwealth of Independent States (former USSR) (CIS)
Launch site: TYURATAM MISSILE AND SPACE COMPLEX (TTMTR)
aabbcc
Your satellite tracking list
Your tracking list is empty




NASA's NSSDC Master Catalog

Two Line Element Set (TLE):
1 19807U 89014A   20143.85568156 +.00000856 +00000-0 -32413-1 0  9995
2 19807 064.3389 014.5997 7051989 271.4879 015.9176 02.00423982228924
Source of the keplerian elements: AFSPC